Terug naar catalogus

SL-16 R/B

ActiefSSO
NORAD 25400·ROCKET BODY·🇷🇺 Russia

Gelanceerd Jul 10, 1998 vanaf Baikonur Cosmodrome

Loading…

Volgende Passages (komende 24 uur)

TLE

VersSource: Space-Track

Epoch: Sep 14, 2026, 14:37 UTC

1 25400U 98043G   26257.60915467  .00000023  00000-0  28704-4 0  9995
2 25400  98.8463 212.5756 0009713 180.7031 179.4136 14.26080801465915

Volg SL-16 R/B in realtime met AllMySat

Download on the App Store